Location: Hickory_CSC
(35.7330°N, 81.3330°W)
Time: 21:04:31
(UTC-04:00)

ISS - All Passes

Search period start: 23 July 2016 00:00
Search period end: 02 August 2016 00:00
Orbit: 401 x 404 km, 51.6° (Epoch: 23 July)

Date Brightness Start Highest point End Pass type
(mag) Time Alt. Az. Time Alt. Az. Time Alt. Az.
23 Jul - 01:01:42 10° WNW 01:03:30 14° NNW 01:05:19 10° N visible
23 Jul - 05:53:45 10° NNW 05:56:33 25° NNE 05:59:20 10° E visible
23 Jul - 07:30:08 10° WNW 07:32:56 27° SW 07:35:43 10° S daylight
23 Jul - 22:30:56 10° SSW 22:33:54 33° SE 22:36:52 10° ENE night (unlit)
24 Jul - 00:07:45 10° W 00:10:22 22° NNW 00:13:00 10° NNE night (unlit)
24 Jul - 05:01:20 10° NNW 05:03:26 16° NNE 05:05:32 10° ENE visible
24 Jul - 06:36:55 10° NW 06:40:08 60° SW 06:43:20 10° SE daylight
24 Jul - 21:39:05 10° SSE 21:41:09 16° SE 21:43:13 10° E visible
24 Jul - 23:14:15 10° WSW 23:17:19 39° NW 23:20:25 10° NE night (unlit)
25 Jul - 04:09:33 10° N 04:10:14 10° NNE 04:10:55 10° NE visible
25 Jul - 05:44:00 10° NW 05:47:14 60° NE 05:50:27 10° ESE visible
25 Jul - 07:22:45 10° WSW 07:23:15 10° SW 07:23:45 10° SW daylight
25 Jul - 22:21:08 10° SW 22:24:23 85° NW 22:27:38 10° NE visible
25 Jul - 23:59:46 10° NW 00:01:15 12° NNW 00:02:43 10° N visible
26 Jul - 04:51:18 10° NNW 04:54:14 30° NE 04:57:10 10° E visible
26 Jul - 06:27:58 10° WNW 06:30:33 22° SW 06:33:07 10° S daylight
26 Jul - 21:28:26 10° SSW 21:31:31 41° SE 21:34:37 10° ENE visible
26 Jul - 23:05:39 10° W 23:08:05 19° NNW 23:10:31 10° NNE visible
27 Jul - 03:58:50 10° NNW 04:01:10 18° NNE 04:03:29 10° ENE visible
27 Jul - 05:34:37 10° WNW 05:37:46 47° SW 05:40:54 10° SSE visible
27 Jul - 20:36:20 10° S 20:38:44 19° SE 20:41:10 10° E daylight
27 Jul - 22:12:02 10° WSW 22:15:00 33° NW 22:18:00 10° NNE visible
28 Jul - 03:06:43 10° N 03:07:58 12° NNE 03:09:14 10° NE visible
28 Jul - 04:41:38 10° NW 04:44:53 75° NE 04:48:08 10° SE visible
28 Jul - 21:18:48 10° SW 21:22:01 68° NW 21:25:16 10° NE visible
28 Jul - 22:57:56 10° NW 22:58:58 11° NNW 23:00:01 10° N visible
29 Jul - 03:48:53 10° NNW 03:51:55 35° NE 03:54:57 10° ESE visible
29 Jul - 05:25:52 10° W 05:28:08 18° SW 05:30:25 10° S visible
29 Jul - 20:25:58 10° SSW 20:29:08 53° SE 20:32:19 10° ENE daylight
29 Jul - 22:03:34 10° WNW 22:05:47 17° NNW 22:08:00 10° NNE visible
30 Jul - 02:56:20 10° NNW 02:58:51 20° NNE 03:01:22 10° E night (unlit)
30 Jul - 04:32:19 10° WNW 04:35:22 37° SW 04:38:24 10° SSE night (unlit)
30 Jul - 19:33:39 10° S 19:36:20 24° SE 19:39:01 10° ENE daylight
30 Jul - 21:09:49 10° W 21:12:40 28° NW 21:15:33 10° NNE visible
31 Jul - 02:04:03 10° N 02:05:42 13° NNE 02:07:20 10° NE night (unlit)
31 Jul - 03:39:15 10° NW 03:42:31 87° SW 03:45:46 10° SE night (unlit)
31 Jul - 18:42:29 10° SSE 18:43:37 11° SE 18:44:44 10° ESE daylight
31 Jul - 20:16:28 10° WSW 20:19:40 54° NW 20:22:52 10° NE daylight
01 Aug - 02:46:26 10° NW 02:49:34 43° NE 02:52:41 10° ESE night (unlit)
01 Aug - 04:23:51 10° W 04:25:42 14° SW 04:27:34 10° SSW night (unlit)
01 Aug - 19:23:31 10° SW 19:26:45 67° SE 19:29:59 10° NE daylight
01 Aug - 21:01:30 10° WNW 21:03:28 15° NNW 21:05:27 10° N visible
